This demonstration page uses our WeatherBlox Daily Observations layout. Learn more.

Left ArrowRight Arrow

39.29038, -76.61219

Hourly Observations for February 11, 2017

Temp ( °F °C ) Dew Point ( °F °C ) Humidity (%) Winds ( mph kmh ) Pressure ( in mb ) Visibility ( mi km ) Precip ( " mm )
12:54 am 00:54 undefined 38 3.3 11 -11.7 33 33 undefined N/A 30.01 1016 N/A 0.00 0.00
1:54 am 01:54 undefined 37 2.8 12 -11.1 36 36 undefined N/A 29.98 1015 N/A 0.00 0.00
2:54 am 02:54 undefined 37 2.8 13 -10.6 37 37 undefined N/A 29.97 1015 N/A 0.00 0.00
3:54 am 03:54 undefined 36 2.2 14 -10 40 40 undefined N/A 29.95 1014 N/A 0.00 0.00
4:54 am 04:54 undefined 36 2.2 14 -10 40 40 undefined N/A 29.96 1015 N/A 0.00 0.00
5:54 am 05:54 undefined 37 2.8 16 -8.9 42 42 undefined N/A 29.96 1014 N/A 0.00 0.00
6:54 am 06:54 undefined 36 2.2 17 -8.3 46 46 undefined N/A 29.95 1014 N/A 0.00 0.00
7:54 am 07:54 undefined 37 2.8 19 -7.2 48 48 undefined N/A 29.96 1014 N/A 0.00 0.00
8:54 am 08:54 undefined 41 5 21 -6.1 45 45 undefined N/A 29.98 1015 N/A 0.00 0.00
9:54 am 09:54 undefined 47 8.3 23 -5 39 39 undefined N/A 30.01 1016 N/A 0.00 0.00
10:54 am 10:54 undefined 51 10.6 24 -4.4 35 35 undefined N/A 30.00 1016 N/A 0.00 0.00
11:54 am 11:54 undefined 54 12.2 25 -3.9 33 33 undefined N/A 29.98 1015 N/A 0.00 0.00
12:54 pm 12:54 undefined 54 12.2 25 -3.9 33 33 undefined N/A 29.93 1014 N/A 0.00 0.00
1:54 pm 13:54 undefined 54 12.2 27 -2.8 35 35 undefined N/A 29.92 1013 N/A 0.00 0.00
2:54 pm 14:54 undefined 55 12.8 28 -2.2 35 35 undefined N/A 29.91 1013 N/A 0.00 0.00
3:54 pm 15:54 undefined 54 12.2 28 -2.2 37 37 undefined N/A 29.93 1014 N/A 0.00 0.00
4:54 pm 16:54 undefined 53 11.7 28 -2.2 38 38 undefined N/A 29.94 1014 N/A 0.00 0.00
5:54 pm 17:54 undefined 52 11.1 29 -1.7 41 41 undefined N/A 29.96 1015 N/A 0.00 0.00
6:54 pm 18:54 undefined 52 11.1 29 -1.7 41 41 undefined N/A 29.97 1015 N/A 0.00 0.00
7:54 pm 19:54 undefined 51 10.6 29 -1.7 43 43 undefined N/A 30.00 1016 N/A 0.00 0.00
8:54 pm 20:54 undefined 51 10.6 30 -1.1 44 44 undefined N/A 30.00 1016 N/A 0.00 0.00
9:54 pm 21:54 undefined 50 10 31 -0.6 48 48 undefined N/A 30.01 1016 N/A 0.00 0.00
10:54 pm 22:54 undefined 50 10 31 -0.6 48 48 undefined N/A 30.01 1016 N/A 0.00 0.00
11:54 pm 23:54 undefined 49 9.4 33 0.6 55 55 undefined N/A 30.00 1016 N/A 0.00 0.00

Powered by AerisWeather